Location: Berkeley
(37.8716°N, 122.2727°W)
Time: 21:38:54
(UTC-08:00)

ISS - Visible Passes

Search period start: 18 February 2019 00:00
Search period end: 28 February 2019 00:00
Orbit: 403 x 411 km, 51.6° (Epoch: 19 February)

Date Brightness Start Highest point End Pass type
(mag) Time Alt. Az. Time Alt. Az. Time Alt. Az.
20 Feb -0.8 06:11:22 10° SSE 06:13:25 16° SE 06:15:28 10° E visible
22 Feb -2.6 06:03:37 10° SSW 06:06:44 42° SE 06:09:50 10° ENE visible
23 Feb -1.4 05:13:03 11° S 05:15:21 21° SE 05:17:54 10° E visible
24 Feb -0.5 04:24:26 11° ESE 04:24:26 11° ESE 04:24:51 10° ESE visible
24 Feb -3.8 05:57:11 12° WSW 06:00:09 67° NW 06:03:25 10° NE visible
25 Feb -3.5 05:08:19 55° SSE 05:08:39 59° SE 05:11:52 10° ENE visible
26 Feb -0.7 04:19:16 15° E 04:19:16 15° E 04:20:04 10° ENE visible
26 Feb -2.7 05:51:59 18° WNW 05:53:41 28° NNW 05:56:35 10° NNE visible
27 Feb -2.9 05:02:47 39° N 05:02:47 39° N 05:05:14 10° NE visible
